TimeMDT,TemperatureF,Dew PointF,Humidity,Sea Level PressureIn,VisibilityMPH,Wind Direction,Wind SpeedMPH,Gust SpeedMPH,PrecipitationIn,Events,Conditions,WindDirDegrees,DateUTC
12:15 AM,48.4,32.0,53,30.01,10.0,South,10.4,-,N/A,,Clear,170,2013-04-05 06:15:00
12:35 AM,48.2,32.0,54,30.00,10.0,SSE,12.7,19.6,N/A,,Clear,160,2013-04-05 06:35:00
12:55 AM,47.7,32.0,55,29.99,10.0,South,12.7,18.4,N/A,,Clear,170,2013-04-05 06:55:00
1:15 AM,46.8,32.0,57,29.98,10.0,South,11.5,17.3,N/A,,Clear,170,2013-04-05 07:15:00
1:35 AM,45.9,32.0,58,29.98,10.0,South,5.8,-,N/A,,Clear,180,2013-04-05 07:35:00
1:55 AM,45.7,32.0,59,29.98,10.0,NNW,4.6,-,N/A,,Clear,340,2013-04-05 07:55:00
2:15 AM,47.3,31.8,55,29.97,10.0,South,10.4,-,N/A,,Clear,180,2013-04-05 08:15:00
2:35 AM,45.9,31.8,58,29.96,10.0,SSW,5.8,17.3,N/A,,Clear,200,2013-04-05 08:35:00
2:55 AM,46.4,31.8,57,29.95,10.0,Calm,Calm,-,N/A,,Clear,0,2013-04-05 08:55:00
3:15 AM,45.1,32.0,60,29.95,10.0,SW,6.9,-,N/A,,Clear,230,2013-04-05 09:15:00
3:35 AM,45.5,32.0,59,29.95,10.0,Calm,Calm,-,N/A,,Clear,0,2013-04-05 09:35:00
3:55 AM,45.0,32.0,60,29.94,10.0,Calm,Calm,-,N/A,,Clear,0,2013-04-05 09:55:00
4:15 AM,45.3,32.0,60,29.93,10.0,Calm,Calm,-,N/A,,Clear,0,2013-04-05 10:15:00
4:35 AM,44.8,32.0,61,29.93,10.0,Calm,Calm,-,N/A,,Clear,0,2013-04-05 10:35:00
4:55 AM,44.8,32.0,61,29.92,10.0,SSE,3.5,-,N/A,,Clear,150,2013-04-05 10:55:00
5:15 AM,44.2,32.7,64,29.92,10.0,Calm,Calm,-,N/A,,Clear,0,2013-04-05 11:15:00
5:35 AM,44.8,32.7,63,29.92,10.0,SE,3.5,-,N/A,,Clear,130,2013-04-05 11:35:00
5:55 AM,43.7,32.2,64,29.92,10.0,Calm,Calm,-,N/A,,Clear,0,2013-04-05 11:55:00
6:15 AM,43.0,32.4,66,29.91,10.0,SSE,4.6,-,N/A,,Clear,160,2013-04-05 12:15:00
6:35 AM,41.2,32.0,70,29.91,10.0,Calm,Calm,-,N/A,,Clear,0,2013-04-05 12:35:00
6:55 AM,39.2,31.6,74,29.91,10.0,Calm,Calm,-,N/A,,Clear,0,2013-04-05 12:55:00
7:15 AM,40.1,32.0,73,29.91,10.0,WSW,3.5,-,N/A,,Clear,240,2013-04-05 13:15:00
7:35 AM,43.2,33.1,68,29.91,10.0,WSW,4.6,-,N/A,,Clear,250,2013-04-05 13:35:00
7:55 AM,45.3,33.4,63,29.90,10.0,Calm,Calm,-,N/A,,Clear,0,2013-04-05 13:55:00
8:15 AM,49.3,33.6,55,29.89,10.0,WSW,3.5,-,N/A,,Clear,240,2013-04-05 14:15:00
8:35 AM,53.6,33.8,47,29.88,10.0,SSW,5.8,-,N/A,,Clear,210,2013-04-05 14:35:00
8:55 AM,58.8,30.7,35,29.86,10.0,SSW,13.8,17.3,N/A,,Clear,200,2013-04-05 14:55:00
9:15 AM,59.0,30.4,34,29.86,10.0,SW,15.0,-,N/A,,Clear,220,2013-04-05 15:15:00
9:35 AM,58.5,29.8,34,29.85,10.0,SSW,16.1,20.7,N/A,,Clear,210,2013-04-05 15:35:00
9:55 AM,58.3,30.0,34,29.85,10.0,SW,9.2,-,N/A,,Clear,220,2013-04-05 15:55:00
10:15 AM,59.2,30.7,34,29.84,10.0,SSW,9.2,-,N/A,,Clear,210,2013-04-05 16:15:00
10:35 AM,60.8,30.9,32,29.83,10.0,SSW,9.2,-,N/A,,Clear,200,2013-04-05 16:35:00
10:55 AM,63.1,31.3,30,29.82,10.0,SW,8.1,-,N/A,,Clear,220,2013-04-05 16:55:00
11:15 AM,64.2,31.3,29,29.82,10.0,SSW,8.1,-,N/A,,Clear,200,2013-04-05 17:15:00
11:35 AM,66.2,31.3,27,29.80,10.0,SSW,5.8,-,N/A,,Clear,210,2013-04-05 17:35:00
11:55 AM,68.4,30.9,25,29.79,10.0,SSE,5.8,-,N/A,,Clear,160,2013-04-05 17:55:00
12:15 PM,69.8,29.7,22,29.77,10.0,SSW,6.9,-,N/A,,Clear,200,2013-04-05 18:15:00
12:35 PM,70.9,29.8,22,29.76,10.0,South,6.9,-,N/A,,Clear,190,2013-04-05 18:35:00
12:55 PM,72.1,29.8,21,29.75,10.0,South,3.5,-,N/A,,Clear,170,2013-04-05 18:55:00
1:15 PM,73.4,29.7,20,29.73,10.0,South,4.6,-,N/A,,Clear,190,2013-04-05 19:15:00
1:35 PM,75.4,29.5,18,29.72,10.0,WSW,5.8,-,N/A,,Clear,250,2013-04-05 19:35:00
1:55 PM,75.4,29.1,18,29.70,10.0,SE,3.5,-,N/A,,Clear,140,2013-04-05 19:55:00
2:15 PM,75.7,28.0,17,29.69,10.0,South,8.1,-,N/A,,Clear,170,2013-04-05 20:15:00
2:35 PM,78.1,27.5,16,29.68,10.0,SSE,8.1,-,N/A,,Clear,160,2013-04-05 20:35:00
2:55 PM,78.6,27.0,15,29.66,10.0,South,4.6,-,N/A,,Clear,170,2013-04-05 20:55:00
3:15 PM,78.6,26.6,15,29.66,10.0,SSW,10.4,-,N/A,,Clear,200,2013-04-05 21:15:00
3:35 PM,78.8,26.6,15,29.65,10.0,SSE,11.5,-,N/A,,Clear,160,2013-04-05 21:35:00
3:55 PM,77.2,25.9,15,29.65,10.0,South,8.1,-,N/A,,Mostly Cloudy,190,2013-04-05 21:55:00
4:15 PM,76.1,26.1,16,29.65,10.0,South,6.9,16.1,N/A,,Overcast,180,2013-04-05 22:15:00
4:35 PM,75.7,26.6,16,29.65,10.0,SSW,3.5,-,N/A,,Overcast,210,2013-04-05 22:35:00
4:55 PM,77.2,25.5,15,29.65,10.0,West,18.4,26.5,N/A,,Overcast,270,2013-04-05 22:55:00
5:15 PM,75.4,27.3,17,29.65,10.0,WNW,18.4,31.1,N/A,,Mostly Cloudy,290,2013-04-05 23:15:00
5:35 PM,75.4,25.5,16,29.65,10.0,WSW,16.1,21.9,N/A,,Overcast,250,2013-04-05 23:35:00
5:55 PM,75.0,25.9,16,29.64,10.0,West,12.7,17.3,N/A,,Scattered Clouds,260,2013-04-05 23:55:00
6:15 PM,73.8,27.7,18,29.63,10.0,West,6.9,-,N/A,,Clear,260,2013-04-06 00:15:00
6:35 PM,73.0,27.5,18,29.62,10.0,SW,3.5,-,N/A,,Clear,230,2013-04-06 00:35:00
6:55 PM,70.3,28.8,21,29.62,10.0,Calm,Calm,-,N/A,,Clear,0,2013-04-06 00:55:00
7:15 PM,69.6,28.9,22,29.62,10.0,Calm,Calm,-,N/A,,Clear,0,2013-04-06 01:15:00
7:35 PM,65.8,28.9,25,29.62,10.0,West,3.5,-,N/A,,Clear,260,2013-04-06 01:35:00
7:55 PM,61.5,29.8,30,29.62,10.0,SW,3.5,-,N/A,,Clear,230,2013-04-06 01:55:00
8:15 PM,55.8,29.1,36,29.63,10.0,West,4.6,-,N/A,,Scattered Clouds,280,2013-04-06 02:15:00
8:35 PM,63.7,31.8,30,29.66,10.0,WSW,20.7,29.9,N/A,,Overcast,240,2013-04-06 02:35:00
8:55 PM,67.5,30.4,25,29.67,10.0,NW,11.5,16.1,N/A,,Mostly Cloudy,320,2013-04-06 02:55:00
9:15 PM,68.2,32.0,26,29.67,10.0,WNW,12.7,-,N/A,,Scattered Clouds,300,2013-04-06 03:15:00
9:35 PM,66.9,33.3,29,29.68,10.0,NNW,13.8,-,N/A,,Scattered Clouds,330,2013-04-06 03:35:00
9:55 PM,65.3,34.0,31,29.67,10.0,NW,16.1,-,N/A,,Overcast,320,2013-04-06 03:55:00
10:15 PM,66.4,32.4,28,29.67,10.0,WNW,13.8,-,N/A,,Mostly Cloudy,300,2013-04-06 04:15:00
10:35 PM,65.7,32.2,29,29.68,10.0,WNW,17.3,-,N/A,,Scattered Clouds,300,2013-04-06 04:35:00
10:55 PM,64.4,35.8,35,29.69,10.0,NW,26.5,34.5,N/A,,Mostly Cloudy,320,2013-04-06 04:55:00
11:15 PM,61.9,37.0,40,29.70,10.0,NW,20.7,28.8,N/A,,Scattered Clouds,310,2013-04-06 05:15:00
11:35 PM,62.4,33.3,34,29.71,10.0,WNW,34.5,48.3,N/A,,Clear,300,2013-04-06 05:35:00
11:55 PM,61.0,34.9,38,29.72,10.0,WNW,31.1,36.8,N/A,,Clear,300,2013-04-06 05:55:00